Location: Greenhawk Observatory
(37.3417°N, 122.0298°W)
Time: 23:55:18
(UTC-08:00)

N. Korean satellite - Visible Passes

Search period start: 20 November 2018 00:00
Search period end: 30 November 2018 00:00
Orbit: 456 x 512 km, 97.2° (Epoch: 20 November)

Date Brightness Start Highest point End Pass type
(mag) Time Alt. Az. Time Alt. Az. Time Alt. Az.
20 Nov 9.7 18:35:27 10° SW 18:37:55 17° W 18:40:22 10° NW visible
21 Nov 8.2 06:03:03 10° NNE 06:06:17 37° E 06:09:31 10° SSE visible
21 Nov 8.3 18:10:00 10° SSW 18:13:19 36° W 18:16:37 10° NNW visible
22 Nov 9.7 05:39:17 10° NE 05:41:41 18° E 05:44:05 10° SE visible
22 Nov 6.6 17:45:12 10° S 17:48:47 83° WSW 17:52:20 10° NNW visible
23 Nov 6.9 17:20:57 10° SSE 17:24:19 42° ENE 17:27:41 10° N visible
24 Nov 6.7 06:22:45 10° NNE 06:26:11 78° ESE 06:29:38 10° S visible
24 Nov 9.4 18:30:38 10° SW 18:33:16 19° W 18:35:54 10° NW visible
25 Nov 8.5 05:58:29 10° NNE 06:01:38 33° E 06:04:47 10° SSE visible
25 Nov 7.9 18:05:18 10° S 18:08:40 41° W 18:12:01 10° NNW visible
26 Nov 9.8 05:34:49 10° NE 05:37:00 16° E 05:39:10 10° SE visible
26 Nov 6.4 17:40:36 10° SSE 17:44:08 84° E 17:47:39 10° N visible
27 Nov 7.1 17:16:25 10° SE 17:19:41 36° ENE 17:22:55 10° N visible
27 Nov 10.2 18:52:34 10° WSW 18:53:15 10° W 18:53:57 10° W visible
28 Nov 6.9 06:18:03 10° NNE 06:21:30 67° E 06:24:58 10° S visible
28 Nov 9.2 18:25:48 10° SSW 18:28:35 22° W 18:31:21 10° NW visible
29 Nov 8.8 05:53:52 10° NE 05:56:55 29° E 06:00:00 10° SSE visible
29 Nov 7.6 18:00:35 10° S 18:03:58 47° W 18:07:21 10° NNW visible
